EW5619 Weather Reports


time (UTC)temp
F
wind
direction
speed
knots
gust
knots
rain 1hr
in
rain 24hr
in
rain mn
in
humidity
%
barometer
mb
20260507040025 45 254 0.9 1.7 0.00 0.35 0.00 87 1007.8
20260507035403 44 259 0.9 1.7 0.00 0.35 0.35 87 1007.7
20260507034503 45 263 2.6 2.6 0.00 0.35 0.35 87 1007.8
20260507033603 44 261 4.3 5.2 0.00 0.35 0.35 87 1007.9
20260507032704 44 268 1.7 3.5 0.00 0.35 0.35 87 1008.0
20260507031803 44 265 3.5 3.5 0.00 0.35 0.35 87 1008.0
20260507030903 44 259 4.3 6.1 0.00 0.35 0.35 88 1008.3
20260507030024 44 252 0.9 2.6 0.00 0.35 0.35 88 1008.4
20260507025403 44 271 0.9 2.6 0.00 0.35 0.35 89 1008.2
20260507024502 44 280 1.7 2.6 0.00 0.35 0.35 88 1008.2
20260507023624 45 257 0.0 0.9 0.00 0.35 0.35 87 1008.1
20260507022703 45 250 0.9 1.7 0.00 0.35 0.35 87 1008.3
20260507021803 45 255 0.9 1.7 0.00 0.35 0.35 87 1008.4
20260507020924 44 275 1.7 3.5 0.00 0.35 0.35 87 1008.2
20260507020003 45 254 1.7 2.6 0.00 0.35 0.35 86 1008.3
20260507015424 45 252 0.9 1.7 0.00 0.35 0.35 85 1008.4
20260507014503 45 260 1.7 2.6 0.00 0.35 0.35 85 1008.3
20260507013603 45 273 0.0 2.6 0.00 0.35 0.35 86 1008.4
20260507012703 46 283 2.6 3.5 0.00 0.35 0.35 84 1008.6
20260507011803 46 274 3.5 5.2 0.00 0.35 0.35 83 1008.8
20260507010903 46 259 2.6 3.5 0.00 0.36 0.35 83 1008.8
20260507010003 45 282 1.7 3.5 0.00 0.36 0.35 84 1008.6
20260507005403 46 294 0.9 1.7 0.00 0.36 0.35 83 1008.6
20260507004504 46 253 0.0 1.7 0.00 0.36 0.35 81 1008.4
20260507003603 46 283 0.9 0.9 0.00 0.36 0.35 81 1008.3
20260507002704 46 294 2.6 2.6 0.00 0.36 0.35 81 1008.3
20260507001803 46 250 1.7 5.2 0.00 0.36 0.35 79 1008.2
20260507000903 47 251 0.9 3.5 0.00 0.36 0.35 80 1008.3
20260507000003 46 265 0.9 1.7 0.00 0.36 0.35 80 1008.0
20260506235403 46 291 1.7 2.6 0.00 0.36 0.35 81 1008.0
20260506234503 47 281 1.7 2.6 0.00 0.36 0.35 77 1007.7
20260506233603 47 241 1.7 1.7 0.00 0.36 0.35 75 1007.9
20260506232703 47 260 1.7 2.6 0.00 0.36 0.35 74 1007.9
20260506231804 47 252 2.6 3.5 0.00 0.36 0.35 75 1007.8
20260506230924 48 249 0.0 1.7 0.00 0.36 0.35 75 1007.6
20260506230024 48 262 0.9 2.6 0.00 0.36 0.35 75 1007.8
20260506225424 48 270 1.7 3.5 0.00 0.36 0.35 74 1007.6
20260506224503 48 258 0.9 1.7 0.00 0.36 0.35 74 1007.7
20260506223603 48 255 0.9 1.7 0.00 0.36 0.35 74 1007.7
20260506222704 48 241 1.7 2.6 0.00 0.36 0.35 73 1007.7
20260506221803 48 257 0.9 1.7 0.00 0.36 0.35 74 1007.6
20260506220902 48 271 1.7 1.7 0.00 0.36 0.35 73 1007.8
20260506220003 49 286 1.7 2.6 0.00 0.36 0.35 72 1008.0
20260506215403 49 284 0.0 0.9 0.00 0.36 0.35 74 1007.8
20260506214503 48 253 2.6 5.2 0.00 0.36 0.35 74 1007.9
20260506213624 48 260 1.7 2.6 0.00 0.36 0.35 74 1007.8
20260506212703 48 261 0.9 1.7 0.00 0.36 0.35 74 1007.7
20260506211803 48 257 1.7 2.6 0.00 0.36 0.35 75 1008.0
20260506210924 48 255 0.9 3.5 0.00 0.36 0.35 75 1007.9
20260506210003 47 270 0.9 2.6 0.00 0.36 0.35 77 1007.7
20260506205403 46 279 0.9 0.9 0.00 0.36 0.35 79 1007.8
20260506204503 46 252 2.6 2.6 0.00 0.36 0.35 79 1007.9
20260506203603 47 255 2.6 2.6 0.00 0.36 0.35 77 1008.0
20260506202703 47 278 0.9 0.9 0.00 0.36 0.35 78 1008.0
20260506201803 47 250 1.7 2.6 0.00 0.36 0.35 77 1008.0
20260506200903 47 282 0.9 0.9 0.00 0.36 0.35 77 1008.1
20260506200003 48 285 0.0 0.9 0.00 0.36 0.35 76 1008.1
20260506195403 48 30 0.9 0.9 0.00 0.36 0.35 77 1008.3
20260506194503 47 291 0.9 0.9 0.00 0.36 0.35 77 1008.3
20260506193603 47 293 0.9 0.9 0.00 0.36 0.35 79 1008.2
20260506192703 46 305 0.0 2.6 0.00 0.36 0.35 81 1008.5
20260506191803 46 273 0.0 0.9 0.00 0.36 0.35 80 1008.3
20260506190903 46 297 1.7 1.7 0.00 0.36 0.35 80 1008.3
20260506190003 45 294 1.7 2.6 0.00 0.36 0.35 82 1008.4
20260506185403 46 309 2.6 2.6 0.00 0.36 0.35 81 1008.3
20260506184524 46 268 0.9 0.9 0.00 0.36 0.35 79 1008.5
20260506183604 46 287 0.0 0.0 0.00 0.36 0.35 78 1008.6
20260506182703 46 310 0.9 1.7 0.00 0.36 0.35 80 1008.4
20260506181803 47 241 0.9 1.7 0.00 0.36 0.35 79 1008.1
20260506180904 46 268 0.9 1.7 0.00 0.36 0.35 81 1008.5
20260506180004 45 287 0.0 1.7 0.00 0.36 0.35 82 1008.3
20260506175403 46 288 1.7 2.6 0.00 0.36 0.35 84 1008.2
20260506174503 46 244 0.9 0.9 0.00 0.36 0.35 81 1008.7
20260506173603 46 217 0.9 0.9 0.00 0.36 0.35 82 1008.7
20260506172724 45 247 0.0 1.7 0.00 0.36 0.35 86 1008.7
20260506171803 45 272 1.7 2.6 0.00 0.36 0.35 87 1008.7
20260506170904 44 232 0.9 1.7 0.00 0.36 0.35 86 1009.1
20260506170024 44 275 0.9 1.7 0.00 0.36 0.35 88 1009.1
20260506165403 44 283 1.7 3.5 0.01 0.36 0.35 88 1009.1
20260506164503 44 191 1.7 1.7 0.01 0.36 0.35 87 1009.2
20260506163604 43 268 2.6 2.6 0.01 0.36 0.35 88 1009.6
20260506162703 44 296 3.5 3.5 0.01 0.36 0.35 88 1009.4
20260506161803 43 173 0.9 0.9 0.01 0.36 0.35 87 1009.3
20260506160924 43 206 0.0 0.9 0.02 0.36 0.35 87 1009.5
20260506160024 43 159 0.9 0.9 0.03 0.36 0.35 89 1009.6
20260506155424 43 226 0.0 0.9 0.03 0.35 0.34 90 1009.6
20260506154504 43 281 2.6 3.5 0.06 0.35 0.34 89 1009.6
20260506153603 43 241 0.9 1.7 0.08 0.35 0.34 88 1009.8
20260506152703 42 257 1.7 2.6 0.09 0.35 0.34 89 1009.6
20260506151803 43 222 0.0 0.9 0.10 0.35 0.34 91 1010.0
20260506150903 41 292 2.6 3.5 0.10 0.34 0.33 90 1009.9
20260506150003 42 240 0.9 1.7 0.10 0.33 0.32 92 1009.8
20260506145403 43 227 0.9 0.9 0.10 0.32 0.31 92 1009.9
20260506144503 42 240 0.9 1.7 0.08 0.29 0.28 92 1010.0
20260506143604 42 260 1.7 1.7 0.07 0.27 0.26 91 1009.9
20260506142703 42 238 1.7 2.6 0.07 0.26 0.25 90 1009.7
20260506141803 42 247 1.7 1.7 0.07 0.25 0.24 90 1009.7
20260506140903 43 247 0.9 0.9 0.06 0.24 0.23 91 1009.6
20260506140003 43 223 0.0 0.9 0.06 0.23 0.22 91 1009.6
20260506135403 43 208 0.9 0.9 0.05 0.22 0.21 92 1009.5
20260506134504 43 236 0.0 0.9 0.04 0.21 0.20 92 1009.7
20260506133603 43 253 0.0 0.9 0.03 0.20 0.19 92 1009.5
20260506132703 43 246 1.7 1.7 0.03 0.19 0.18 92 1009.6
20260506131804 43 286 2.6 3.5 0.03 0.18 0.17 91 1009.4
20260506130904 43 231 0.9 0.9 0.04 0.18 0.17 90 1009.3
20260506130005 43 232 0.9 0.9 0.03 0.17 0.16 89 1009.6
20260506125403 43 242 2.6 3.5 0.04 0.17 0.16 90 1009.4
20260506124503 43 254 0.0 0.0 0.05 0.17 0.16 90 1009.5
20260506123603 42 269 1.7 2.6 0.06 0.17 0.16 90 1009.5
20260506122703 43 233 1.7 5.2 0.06 0.16 0.15 89 1009.3
20260506121803 43 241 0.9 1.7 0.06 0.15 0.14 90 1009.5
20260506120924 43 284 1.7 3.5 0.06 0.14 0.13 91 1009.4
20260506120003 44 258 2.6 3.5 0.07 0.14 0.13 90 1009.7
20260506115403 44 244 1.7 2.6 0.07 0.13 0.12 90 1009.6
20260506114503 44 239 2.6 2.6 0.06 0.12 0.11 90 1009.6
20260506113603 44 240 1.7 2.6 0.06 0.11 0.10 89 1009.9
20260506112724 44 249 0.9 0.9 0.06 0.11 0.09 89 1010.0
20260506111803 44 245 1.7 1.7 0.06 0.11 0.08 89 1009.8
20260506110903 44 263 3.5 3.5 0.05 0.10 0.07 89 1009.9
20260506110003 44 264 0.9 2.6 0.05 0.09 0.06 90 1009.7
20260506105403 44 261 0.9 1.7 0.04 0.08 0.05 90 1009.8
20260506104503 45 273 1.7 3.5 0.04 0.08 0.05 89 1009.7
20260506103603 45 254 0.9 0.9 0.04 0.07 0.04 89 1009.5
20260506102703 45 268 1.7 2.6 0.03 0.06 0.03 89 1009.2
20260506101803 45 307 1.7 2.6 0.02 0.05 0.02 89 1008.9
20260506100903 45 247 0.0 0.9 0.02 0.05 0.02 88 1009.2
20260506100003 45 265 0.9 1.7 0.01 0.04 0.01 87 1008.8
20260506095403 45 252 0.9 0.9 0.01 0.04 0.01 88 1009.1
20260506094503 45 277 0.9 2.6 0.01 0.04 0.01 88 1009.0
20260506093603 46 271 1.7 2.6 0.00 0.03 0.00 85 1009.3
20260506092703 47 280 6.1 8.7 0.00 0.03 0.00 81 1009.0
20260506091803 47 257 3.5 7.8 0.00 0.03 0.00 80 1008.9
20260506090924 47 263 3.5 3.5 0.00 0.03 0.00 82 1008.9
20260506090003 47 276 4.3 6.1 0.00 0.03 0.00 81 1009.0
20260506085403 47 261 1.7 5.2 0.00 0.03 0.00 81 1008.7
20260506084503 47 246 1.7 1.7 0.00 0.03 0.00 81 1008.4
20260506083603 47 266 2.6 2.6 0.00 0.03 0.00 81 1008.5
20260506082703 48 273 4.3 7.0 0.00 0.03 0.00 81 1009.0
20260506081803 48 252 4.3 6.1 0.00 0.03 0.00 81 1008.9
20260506080903 48 275 3.5 7.0 0.00 0.03 0.00 81 1009.1
20260506072703 48 246 2.6 5.2 0.00 0.03 0.00 80 1008.9
20260506071804 48 256 1.7 6.1 0.00 0.03 0.00 80 1008.6
20260506070903 48 257 5.2 7.0 0.00 0.03 0.00 80 1008.7
20260506061803 49 249 1.7 2.6 0.00 0.03 0.00 81 1008.6
20260506060903 49 257 4.3 8.7 0.00 0.03 0.00 81 1008.2
20260506050903 50 273 2.6 7.0 0.00 0.03 0.00 82 1007.8
20260506044503 50 254 3.5 5.2 0.00 0.03 0.00 82 1008.0
20260506043603 50 261 5.2 8.7 0.00 0.03 0.00 82 1007.8
20260506042703 50 246 7.0 7.8 0.00 0.03 0.00 83 1007.6
20260506041803 51 250 2.6 5.2 0.00 0.03 0.00 83 1007.5
20260506040903 51 292 2.6 5.2 0.00 0.03 0.00 83 1007.4